Zurück zum Katalog

MOLNIYA 1-81

AktivKommunikationHEO
NORAD 21426·PAYLOAD·🇷🇺 Russia

Gestartet Jun 18, 1991 von Plesetsk Cosmodrome

Loading…

Nächste Überflüge (nächste 24 Stunden)

TLE

AktuellSource: Space-Track

Epoche: Sep 9, 2026, 19:41 UTC

1 21426U 91043A   26252.82067456  .00000106  00000-0  00000-0 0  9994
2 21426  63.4157 171.0061 6789116 257.3424  24.6354  2.00613593258169

Verfolge MOLNIYA 1-81 in Echtzeit mit AllMySat

Download on the App Store